Regional Weather Roundup
Issued by NWS

Home | Current Version | Previous Version | Text Only | Print | Product List | Glossary On
Versions: 1 2 3 4 5 6 7 8 9 10 11 12 13 14 15 16 17 18 19 20 21 22 23 24 25 26 27 28 29 30 31 32 33 34 35 36 37 38 39 40 41 42 43 44 45 46 47 48 49 50
604
ASUS44 KLIX 270407
RWRLA
LOUISIANA WEATHER ROUNDUP
NATIONAL WEATHER SERVICE NEW ORLEANS LA
1100 PM CDT THU MAR 26 2015

NOTE: "FAIR" INDICATES FEW OR NO CLOUDS BELOW 12,000 FEET WITH NO
      SIGNIFICANT WEATHER AND/OR OBSTRUCTIONS TO VISIBILITY.
      SKY/WX - SKY CONDITION AND SIGNIFICANT WEATHER.
      TMP - AIR TEMPERATURE.    DP   - DEWPOINT TEMPERATURE.
      RH  - RELATIVE HUMIDITY.  PRES - PRESSURE.
      HX  - HEAT INDEX.         WCI  - WIND CHILL INDEX.

*  THESE STATIONS ARE NOT NWS OR FAA STATIONS AND ARE NOT UNDER
   NWS QUALITY CONTROL.

LAZ040-048-061>063-065-066-069-270500-
SOUTHEAST LOUISIANA

CITY           SKY/WX    TMP DP  RH WIND       PRES   REMARKS
N.O. AUDUBON     N/A     66 N/A N/A MISG        N/A
N.O. INTL ARPT CLOUDY    65  62  90 W8        29.90R
N.O. LAKEFRONT CLOUDY    67  62  84 W9        29.90R
SLIDELL        CLOUDY    63  62  97 VRB5      29.89R
BATON ROUGE    CLOUDY    56  50  80 N10G17    29.97R
BOOTHVILLE     PTCLDY    63  62  97 CALM      29.92R
BELLE CHASSE   MOCLDY    63  61  93 SW5       29.89S FOG
BOGALUSA*        N/A     60  55  86 N12       29.94R
GALLIANO*      CLOUDY    54  53  97 W3        29.91S FOG
NEW ROADS*     CLOUDY    55  49  80 NW9       30.00S
GONZALES*      CLOUDY    58  56  93 NW12G21   29.95R
HAMMOND*       CLOUDY    59  54  82 N14       29.96R
HOUMA*         CLOUDY    64  64  97 NW13      29.91R
PORT FOURCHON* CLOUDY    68  64  88 W7G13     29.94S

$$

LAZ041-044-053-054-270500-
SOUTHWEST LOUISIANA

CITY           SKY/WX    TMP DP  RH WIND       PRES   REMARKS
LAKE CHARLES   CLOUDY    58  50  75 N18G25    30.04R
LAFAYETTE      CLOUDY    57  51  80 N15G26    30.00R
PATTERSON      CLOUDY    59  54  82 N10G20    29.97R
SALT POINT       N/A     60  57  89 N14G25    29.95R
NEW IBERIA     CLOUDY    58  52  80 N16G23    29.99R
CHENAULT AIRPK CLOUDY    57  50  78 N13G18    30.05R

$$

LAZ027-028-270500-
CENTRAL LOUISIANA

CITY           SKY/WX    TMP DP  RH WIND       PRES   REMARKS
FORT POLK      NOT AVBL
ALEXANDRIA INT CLOUDY    53  47  79 N9        30.06R
ALEXANDRIA     CLOUDY    53  46  77 N8        30.06S

$$

LAZ001-002-270500-
NORTHWEST LOUISIANA

CITY           SKY/WX    TMP DP  RH WIND       PRES   REMARKS
SHREVEPORT     CLEAR     49  45  86 W3        30.09R
BARKSDALE AFB  NOT AVBL
DTN SHREVEPORT CLEAR     48  44  86 CALM      30.10R

$$

LAZ014-016-270500-
NORTHEAST LOUISIANA

CITY           SKY/WX    TMP DP  RH WIND       PRES   REMARKS
MONROE         MOCLDY    50  45  83 N8        30.09R
TALLULAH       LGT RAIN  50  43  77 N16G26    30.05R

$$




USA.gov is the U.S. government's official web portal to all federal, state and local government web resources and services.